Погода в Чиркее

Россия / Республика Дагестан     42°57′43″N   46°58′39″E
темп.,
°C
ветер,
м/с
пор.,
м/с
влажн.,
%
обл.,
%
осадки,
мм/ч
давл.,
гПа
погр.,
м
13 апреля, вт
вт1300:00+10ююв22760 0.0 102116
03:00+9сз12825 0.0 102114
06:00+9в018585 0.0 102316
09:00+13вюв356686 0.0 1021705
12:00+18вюв79372 0.0 10181443
15:00+18в78343 0.0 10171185
18:00+14всв224678 0.0 101891
21:00+11сз1161100 0.0 101815
14 апреля, ср
ср1400:00+11з2277100 0.1 101751
03:00+10сз1282100 0.1 101619
06:00+9зсз128480 0.0 101661
09:00+14ссз4464100 0.0 1015883
12:00+14сз7660100 0.0 10151198
15:00+11з5869100 0.3 1016638
18:00+11з3667100 1.2 1016377
21:00+11з2362100 1.3 101677
15 апреля, чт
чт1500:00+10зсз337182 0.0 101652
03:00+9з347118 0.0 101660
06:00+10зюз33655 0.0 101635
09:00+16ссз45485 0.0 1016902
12:00+18ссз66415 0.0 10151397
15:00+19с55383 0.0 10151425
18:00+16ссв23465 0.0 101661
21:00
16 апреля, пт
пт1600:00+12ююз115514 0.0 101510
03:00+12юз115995 0.0 101610
06:00+12вюв006160 0.0 101710
09:00+16всв234497 0.0 1017747
12:00+19всв553867 0.0 10151638
15:00+18в6639100 0.3 10151398
18:00+15вюв455174 0.4 1015292
21:00+13юв236357 0.3 101545
17 апреля, сб
сб1700:00+12зсз11705 0.0 101611
03:00+11зсз1176100 0.0 101611
06:00+12вюв1173100 0.0 101711
09:00+15с2263100 0.0 1018685
12:00+15сз6562100 0.0 10181050
15:00+13зсз686999 0.0 1019774
18:00+11сз5778100 0.0 1021629
21:00+10сз3382100 0.1 1021284